815  
ASUS44 KHUN 051910  
RWRHUN  
 
WEATHER ROUNDUP FOR THE TENNESSEE VALLEY  
NATIONAL WEATHER SERVICE HUNTSVILLE AL  
200 PM CDT WED AUG 05 2020  
 
ALZ001>004-052000-  
NORTHWEST ALABAMA  
 
CITY SKY/WX TMP DP RH WIND PRES REMARKS
 
SHOALS AIRPORT SUNNY 91 64 40 VRB5 30.02F HX 92  

 
 
ALZ005>007-016-052000-  
NORTH CENTRAL ALABAMA  
 
CITY SKY/WX TMP DP RH WIND PRES REMARKS
 
CULLMAN AG STN N/A 84 N/A N/A NW5 N/A  
DECATUR AP CLOUDY 84 68 58 NE6 30.03F  
HUNTSVILLE AP MOSUNNY 88 66 48 CALM 30.02F HX 90  
HUN NWS/UAH N/A 84 66 54 N5 N/A  
MERIDIANVILLE MOSUNNY 87 67 51 W3 30.03F HX 90  
VINEMONT AP FAIR 86 67 52 NW5 30.06F  

 
 
ALZ008>010-052000-  
NORTHEAST ALABAMA  
 
CITY SKY/WX TMP DP RH WIND PRES REMARKS
 
ALBERTVILLE CLOUDY N/A N/A N/A NE3 30.04F  
FORT PAYNE MOSUNNY 83 72 68 W12 30.02S  
SCOTTSBORO AP PTSUNNY 84 72 65 S3 30.02F  

 
 
TNZ076-096-097-052000-  
SOUTHEASTERN MIDDLE TENNESSEE  
 
CITY SKY/WX TMP DP RH WIND PRES REMARKS
 
TULLAHOMA PTSUNNY 82 68 61 N8 30.04S  
WINCHESTER PTSUNNY 84 64 51 VRB5 30.04S  

 
   
..SURROUNDING SITES
 
 
 
CITY SKY/WX TMP DP RH WIND PRES REMARKS
 
ATLANTA PTSUNNY 88 65 46 SW9 30.02F THUNDER HX 90  
ANNISTON PTSUNNY 88 70 55 SE5 30.00F HX 93  
BIRMINGHAM MOSUNNY 88 68 51 W10 30.02F HX 91  
CHATTANOOGA LGT RAIN 83 68 60 W6 30.02F  
CORINTH PTSUNNY 82 61 47 NW10 30.06S  
DALTON PTSUNNY 90 61 37 CALM 30.03F  
GADSDEN MOSUNNY 90 70 51 NW8 30.01S HX 95  
GOLDEN TRNGL MOSUNNY 89 70 53 NW7 30.02F HX 94  
HALEYVILLE FAIR 87 66 49 E3 30.06F  
JACKSON TN MOSUNNY 80 60 50 W7 30.09S  
MEMPHIS PTSUNNY 84 56 38 N12G21 30.08F  
NASHVILLE MOSUNNY 84 64 50 N8 30.06F  
OXFORD MS FAIR 84 59 42 N10 30.08S  
ROME PTSUNNY 83 69 62 CALM 30.01F  
SAVANNAH MOSUNNY 82 64 54 NW8 30.05S  
SELMER PTSUNNY 79 64 61 VRB3 30.06F  
TUPELO PTSUNNY 85 63 47 N10 30.04S  
TUSCALOOSA PTSUNNY 90 69 50 VRB5 29.99F HX 94  

 
 
 
 
CLICK HERE TO GO TO PREVIOUS BULLETINS.

The Nexlab AL Page
The Nexlab TN Page Main Text Page